CW5437 Weather Reports


Display with metric or nautical units.
time (UTC)temp
F
wind
direction
speed
MPH
gust
MPH
rain 1hr
in
rain 24hr
in
rain mn
in
humidity
%
barometer
mb
20260906182006 75 318 5.0 8.0 0.00 0.00 0.00 55 1017.4
20260906181007 75 3 4.0 6.0 0.00 0.00 0.00 48 1017.4
20260906175002 75 48 6.0 9.0 0.00 0.00 0.00 55 1017.6
20260906174002 74 3 2.0 3.0 0.00 0.00 0.00 55 1017.6
20260906173003 74 25 5.0 7.0 0.00 0.00 0.00 52 1017.8
20260906172004 74 25 2.0 4.0 0.00 0.00 0.00 59 1017.9
20260906171005 75 48 4.0 7.0 0.00 0.00 0.00 56 1018.1
20260906170006 73 48 7.0 11.0 0.00 0.00 0.00 56 1017.8
20260906165007 73 25 4.0 6.0 0.00 0.00 0.00 64 1017.8
20260906162002 74 25 8.0 11.0 0.00 0.00 0.00 58 1018.0
20260906161003 73 70 4.0 7.0 0.00 0.00 0.00 63 1018.0
20260906160004 70 3 3.0 4.0 0.00 0.00 0.00 67 1018.1
20260906155005 71 93 2.0 3.0 0.00 0.00 0.00 68 1018.2
20260906152006 71 3 5.0 8.0 0.00 0.00 0.00 71 1018.0
20260906145006 73 3 3.0 4.0 0.00 0.00 0.00 68 1017.9
20260906144001 74 25 4.0 5.0 0.00 0.00 0.00 68 1017.8
20260906143007 72 70 1.0 3.0 0.00 0.00 0.00 72 1017.9
20260906142001 70 205 2.0 3.0 0.00 0.00 0.00 73 1017.8
20260906141002 68 160 3.0 5.0 0.00 0.00 0.00 75 1017.8
20260906140002 69 93 2.0 3.0 0.00 0.00 0.00 75 1017.7
20260906135004 68 25 2.0 3.0 0.00 0.00 0.00 75 1017.7
20260906134005 70 318 2.0 3.0 0.00 0.00 0.00 76 1017.7
20260906132006 66 273 0.0 1.0 0.00 0.00 0.00 78 1017.8
20260906131006 68 48 1.0 2.0 0.00 0.00 0.00 79 1017.7
20260906130001 66 115 2.0 3.0 0.00 0.00 0.00 82 1017.8
20260906125002 65 3 2.0 3.0 0.00 0.00 0.00 84 1017.7
20260906124003 64 115 0.0 1.0 0.00 0.00 0.00 88 1017.6
20260906123004 63 48 0.0 1.0 0.00 0.00 0.00 92 1017.5
20260906121004 60 138 1.0 2.0 0.00 0.00 0.00 98 1017.5
20260906120005 58 93 1.0 2.0 0.00 0.00 0.00 99 1017.4
20260906115005 56 70 2.0 2.0 0.00 0.00 0.00 99 1017.2
20260906114005 55 48 0.0 0.0 0.00 0.00 0.00 99 1017.2
20260906113000 54 273 1.0 2.0 0.00 0.00 0.00 99 1017.0
20260906112001 54 228 2.0 3.0 0.00 0.00 0.00 99 1017.1
20260906111002 54 228 0.0 0.0 0.00 0.00 0.00 98 1017.1
20260906110003 54 160 1.0 2.0 0.00 0.00 0.00 98 1017.0
20260906105004 53 160 1.0 1.0 0.00 0.00 0.00 98 1016.8
20260906104004 54 115 2.0 3.0 0.00 0.00 0.00 98 1016.8
20260906103004 54 93 1.0 1.0 0.00 0.00 0.00 98 1016.7
20260906102005 54 70 2.0 3.0 0.00 0.00 0.00 98 1016.5
20260906101006 54 93 1.0 1.0 0.00 0.00 0.00 98 1016.5
20260906095009 54 48 1.0 1.0 0.00 0.00 0.00 98 1016.5
20260906094002 54 205 0.0 1.0 0.00 0.00 0.00 98 1016.5
20260906092001 54 250 1.0 2.0 0.00 0.00 0.00 98 1016.3
20260906091002 55 318 2.0 2.0 0.00 0.00 0.00 98 1016.2
20260906090003 55 160 0.0 0.0 0.00 0.00 0.00 97 1016.3
20260906085004 55 160 1.0 2.0 0.00 0.00 0.00 97 1016.2
20260906084005 55 205 1.0 2.0 0.00 0.00 0.00 97 1016.0
20260906083005 55 160 1.0 1.0 0.00 0.00 0.00 97 1016.0
20260906082006 55 205 0.0 1.0 0.00 0.00 0.00 97 1015.9
20260906081002 55 183 1.0 1.0 0.00 0.00 0.00 97 1015.9
20260906080002 55 138 1.0 1.0 0.00 0.00 0.00 97 1015.9
20260906075003 55 160 1.0 2.0 0.00 0.00 0.00 97 1015.8
20260906074004 55 138 1.0 2.0 0.00 0.00 0.00 97 1015.8
20260906073005 56 115 2.0 3.0 0.00 0.00 0.00 97 1015.6
20260906072005 55 138 1.0 2.0 0.00 0.00 0.00 96 1015.4
20260906071006 55 228 1.0 1.0 0.00 0.00 0.00 96 1015.4
20260906070007 56 250 1.0 2.0 0.00 0.00 0.00 96 1015.6
20260906065002 56 205 1.0 1.0 0.00 0.00 0.00 96 1015.6
20260906064003 56 205 0.0 1.0 0.00 0.00 0.00 96 1015.6
20260906063004 56 183 0.0 1.0 0.00 0.00 0.00 95 1015.6
20260906062005 56 183 0.0 1.0 0.00 0.00 0.00 95 1015.6
20260906061006 56 318 0.0 1.0 0.00 0.00 0.00 95 1015.6
20260906060007 57 273 1.0 1.0 0.00 0.00 0.00 95 1015.6
20260906055002 57 183 1.0 1.0 0.00 0.00 0.00 95 1015.4
20260906054003 57 160 1.0 1.0 0.00 0.00 0.00 95 1015.6
20260906053004 57 160 1.0 1.0 0.00 0.00 0.00 94 1015.5
20260906052005 57 228 1.0 1.0 0.00 0.00 0.00 94 1015.6
20260906051006 57 183 1.0 1.0 0.00 0.00 0.00 94 1015.6
20260906050001 57 205 1.0 2.0 0.00 0.00 0.00 93 1015.3
20260906044007 57 205 0.0 0.0 0.00 0.00 0.00 93 1015.5
20260906043001 58 183 1.0 1.0 0.00 0.00 0.00 92 1015.4
20260906042002 58 228 2.0 3.0 0.00 0.00 0.00 92 1015.2
20260906041003 58 273 0.0 1.0 0.00 0.00 0.00 92 1015.1
20260906040004 58 160 1.0 1.0 0.00 0.00 0.00 91 1015.2
20260906035004 58 205 0.0 1.0 0.00 0.00 0.00 91 1015.2
20260906034005 59 228 1.0 1.0 0.00 0.00 0.00 90 1015.2
20260906033007 59 228 1.0 2.0 0.00 0.00 0.00 90 1015.0
20260906032001 59 250 2.0 2.0 0.00 0.00 0.00 89 1014.9
20260906031001 59 228 0.0 1.0 0.00 0.00 0.00 89 1015.0
20260906030002 60 205 1.0 1.0 0.00 0.00 0.00 88 1015.0
20260906025003 60 138 1.0 1.0 0.00 0.00 0.00 88 1014.9
20260906024004 60 138 2.0 3.0 0.00 0.00 0.00 87 1015.0
20260906022005 61 138 1.0 1.0 0.00 0.00 0.00 86 1015.0
20260906021006 61 138 1.0 1.0 0.00 0.00 0.00 85 1014.9
20260906020006 62 183 1.0 1.0 0.00 0.00 0.00 85 1015.0
20260906015001 62 228 0.0 1.0 0.00 0.00 0.00 84 1014.9
20260906014002 62 228 0.0 1.0 0.00 0.00 0.00 82 1014.8
20260906013003 63 48 1.0 1.0 0.00 0.00 0.00 81 1014.8
20260906012004 64 48 1.0 1.0 0.00 0.00 0.00 80 1014.6
20260906010005 64 48 2.0 3.0 0.00 0.00 0.00 77 1014.5
20260906005006 65 295 2.0 3.0 0.00 0.00 0.00 76 1014.5
20260906004006 65 228 1.0 1.0 0.00 0.00 0.00 75 1014.3
20260906003007 65 340 1.0 3.0 0.00 0.00 0.00 73 1014.2
20260906002002 66 48 2.0 3.0 0.00 0.00 0.00 71 1014.4
20260905235003 67 70 2.0 4.0 0.00 0.00 0.00 68 1014.2
20260905234005 68 3 4.0 6.0 0.00 0.00 0.00 68 1014.1
20260905233007 68 3 4.0 7.0 0.00 0.00 0.00 66 1014.2
20260905231007 69 25 4.0 6.0 0.00 0.00 0.00 62 1014.1
20260905230002 70 318 5.0 7.0 0.00 0.00 0.00 62 1014.1
20260905225002 70 318 4.0 7.0 0.00 0.00 0.00 61 1014.3
20260905224003 71 318 5.0 7.0 0.00 0.00 0.00 59 1014.4
20260905223004 71 3 6.0 9.0 0.00 0.00 0.00 58 1014.4
20260905222005 72 318 7.0 12.0 0.00 0.00 0.00 55 1014.3
20260905221006 73 340 6.0 11.0 0.00 0.00 0.00 57 1014.3
20260905220007 73 340 6.0 9.0 0.00 0.00 0.00 56 1014.3
20260905215002 75 318 6.0 9.0 0.00 0.00 0.00 57 1014.0
20260905214003 75 273 2.0 4.0 0.00 0.00 0.00 58 1013.9
20260905213004 74 318 3.0 6.0 0.00 0.00 0.00 56 1013.8
20260905212005 75 3 6.0 10.0 0.00 0.00 0.00 53 1013.7
20260905211006 76 340 5.0 9.0 0.00 0.00 0.00 55 1013.7
20260905210007 75 318 3.0 6.0 0.00 0.00 0.00 53 1013.8
20260905205002 76 340 7.0 9.0 0.00 0.00 0.00 52 1013.7
20260905203002 76 340 4.0 7.0 0.00 0.00 0.00 53 1013.6
20260905202003 75 25 6.0 9.0 0.00 0.00 0.00 52 1013.6
20260905201005 76 295 4.0 6.0 0.00 0.00 0.00 52 1013.6
20260905200005 76 3 5.0 7.0 0.00 0.00 0.00 52 1013.7
20260905195006 76 3 5.0 8.0 0.00 0.00 0.00 54 1013.9
20260905194007 74 48 5.0 9.0 0.00 0.00 0.00 55 1013.9
20260905193002 76 3 6.0 10.0 0.00 0.00 0.00 52 1013.8
20260905192003 75 340 4.0 7.0 0.00 0.00 0.00 53 1013.8
20260905191003 76 340 8.0 12.0 0.00 0.00 0.00 52 1013.8
20260905185003 78 340 6.0 9.0 0.00 0.00 0.00 50 1013.8
20260905184004 78 3 4.0 6.0 0.00 0.00 0.00 50 1013.9
20260905183004 78 318 5.0 8.0 0.00 0.00 0.00 49 1013.9